Voltar ao catálogo

YAMAL 102

AtivoComunicaçõesGEO
NORAD 25897·PAYLOAD·🇷🇺 Russia

Lançado Sep 6, 1999 de Baikonur Cosmodrome

Loading…

TLE

AtualizadoSource: Space-Track

Época: Sep 14, 2026, 14:37 UTC

1 25897U 99047B   26257.60907449 -.00000090  00000-0  00000-0 0  9991
2 25897  13.7621  12.0168 0001070   1.9386  10.8392  1.00001037 98895

Acompanhe YAMAL 102 em tempo real com AllMySat

Download on the App Store